When you browse on this site, cookies collect data to enhance your experience and personalize the content and advertising you see.
Visit our Privacy Policy to learn more. By continuing to use the site, you agree to this use of cookies and data.
  • In Portugal
  • List of Countries
  • For 7 days
  • Water Temperature
  • Satellite Maps
  • Weather Map
  • Weather Widgets
  • user-avatar
    Login

    Hourly Weather Voron

    Today, 23 May, Thursday

    Time Temperature Precipitation Wind Pressure Humidity
    00:00 +16°C° 0 mm 1 mps 743 mmHg 85%
    01:00 +15°C° 0 mm 1 mps 743 mmHg 86%
    02:00 +15°C° 0 mm 1 mps 743 mmHg 87%
    03:00 +15°C° 0 mm 1 mps 743 mmHg 88%
    04:00 +15°C° 0 mm 1 mps 743 mmHg 88%
    05:00 +15°C° 0 mm 1 mps 743 mmHg 89%
    06:00 +18°C° 0 mm 1 mps 743 mmHg 84%
    07:00 +19°C° 0 mm 1 mps 743 mmHg 79%
    08:00 +20°C° 0 mm 2 mps 743 mmHg 74%
    09:00 +21°C° 0.5 mm 2 mps 743 mmHg 70%
    10:00 +23°C° 0.5 mm 2 mps 743 mmHg 65%
    11:00 +24°C° 0.5 mm 2 mps 743 mmHg 61%
    12:00 +25°C° 0.2 mm 3 mps 743 mmHg 59%
    13:00 +25°C° 0.2 mm 3 mps 743 mmHg 58%
    14:00 +26°C° 0.2 mm 3 mps 743 mmHg 56%
    15:00 +25°C° 0.3 mm 3 mps 743 mmHg 60%
    16:00 +25°C° 0.3 mm 3 mps 742 mmHg 63%
    17:00 +24°C° 0.3 mm 3 mps 742 mmHg 67%
    18:00 +23°C° 0.4 mm 2 mps 742 mmHg 72%
    19:00 +21°C° 0.4 mm 2 mps 742 mmHg 78%
    20:00 +20°C° 0.4 mm 1 mps 742 mmHg 83%
    21:00 +19°C° 0.2 mm 1 mps 743 mmHg 85%
    22:00 +19°C° 0.2 mm 1 mps 743 mmHg 87%
    23:00 +18°C° 0.2 mm 1 mps 743 mmHg 90%

    Tomorrow, 24 May, Friday

    Time Temperature Precipitation Wind Pressure Humidity
    00:00 +16°C° 0.3 mm 1 mps 743 mmHg 91%
    01:00 +16°C° 0.3 mm 1 mps 743 mmHg 93%
    02:00 +16°C° 0.3 mm 1 mps 743 mmHg 94%
    03:00 +16°C° 0.1 mm 1 mps 743 mmHg 95%
    04:00 +16°C° 0.1 mm 1 mps 743 mmHg 96%
    05:00 +15°C° 0.1 mm 1 mps 743 mmHg 96%
    06:00 +18°C° 0 mm 1 mps 744 mmHg 94%
    07:00 +19°C° 0 mm 1 mps 744 mmHg 91%
    08:00 +20°C° 0 mm 1 mps 744 mmHg 88%
    09:00 +20°C° 0.4 mm 1 mps 744 mmHg 85%
    10:00 +20°C° 0.4 mm 2 mps 744 mmHg 82%
    11:00 +21°C° 0.4 mm 2 mps 744 mmHg 79%
    12:00 +21°C° 0.5 mm 2 mps 744 mmHg 78%
    13:00 +21°C° 0.5 mm 2 mps 744 mmHg 76%
    14:00 +23°C° 0.5 mm 2 mps 744 mmHg 74%
    15:00 +22°C° 1.9 mm 1 mps 743 mmHg 76%
    16:00 +22°C° 1.9 mm 1 mps 743 mmHg 78%
    17:00 +20°C° 1.9 mm 0 mps 743 mmHg 80%
    18:00 +20°C° 0.6 mm 1 mps 743 mmHg 83%
    19:00 +19°C° 0.6 mm 1 mps 743 mmHg 86%
    20:00 +18°C° 0.6 mm 1 mps 743 mmHg 90%
    21:00 +16°C° 0 mm 2 mps 743 mmHg 91%
    22:00 +16°C° 0 mm 2 mps 743 mmHg 92%
    23:00 +14°C° 0 mm 3 mps 743 mmHg 93%

    Day after tomorrow, 25 May, Saturday

    Time Temperature Precipitation Wind Pressure Humidity
    00:00 +13°C° 0 mm 3 mps 743 mmHg 91%
    01:00 +11°C° 0 mm 3 mps 743 mmHg 89%
    02:00 +10°C° 0 mm 3 mps 743 mmHg 87%
    03:00 +10°C° 0 mm 2 mps 743 mmHg 87%
    04:00 +10°C° 0 mm 2 mps 743 mmHg 86%
    05:00 +10°C° 0 mm 2 mps 743 mmHg 86%
    06:00 +12°C° 0 mm 2 mps 743 mmHg 80%
    07:00 +14°C° 0 mm 2 mps 743 mmHg 75%
    08:00 +16°C° 0 mm 2 mps 743 mmHg 69%
    09:00 +17°C° 0 mm 2 mps 742 mmHg 63%
    10:00 +19°C° 0 mm 2 mps 742 mmHg 57%
    11:00 +20°C° 0 mm 2 mps 742 mmHg 52%
    12:00 +21°C° 0 mm 2 mps 742 mmHg 51%
    13:00 +21°C° 0 mm 2 mps 741 mmHg 50%
    14:00 +22°C° 0 mm 3 mps 741 mmHg 49%
    15:00 +21°C° 0.3 mm 3 mps 741 mmHg 56%
    16:00 +20°C° 0.3 mm 4 mps 740 mmHg 63%
    17:00 +19°C° 0.3 mm 4 mps 740 mmHg 70%
    18:00 +18°C° 0.4 mm 4 mps 740 mmHg 76%
    19:00 +15°C° 0.4 mm 4 mps 740 mmHg 81%
    20:00 +13°C° 0.4 mm 4 mps 740 mmHg 87%
    21:00 +12°C° 0 mm 4 mps 740 mmHg 88%
    22:00 +10°C° 0 mm 3 mps 740 mmHg 90%
    23:00 +9°C° 0 mm 3 mps 740 mmHg 91%

    26 May, Sunday

    Time Temperature Precipitation Wind Pressure Humidity
    00:00 +8°C° 0 mm 3 mps 740 mmHg 93%
    01:00 +8°C° 0 mm 3 mps 740 mmHg 94%
    02:00 +7°C° 0 mm 3 mps 740 mmHg 95%
    03:00 +7°C° 0 mm 4 mps 740 mmHg 94%
    04:00 +7°C° 0 mm 4 mps 740 mmHg 94%
    05:00 +8°C° 0 mm 4 mps 740 mmHg 93%
    06:00 +8°C° 0 mm 4 mps 740 mmHg 91%
    07:00 +9°C° 0 mm 5 mps 739 mmHg 88%
    08:00 +9°C° 0 mm 5 mps 739 mmHg 86%
    09:00 +10°C° 0 mm 5 mps 739 mmHg 82%
    10:00 +12°C° 0 mm 5 mps 739 mmHg 78%
    11:00 +13°C° 0 mm 6 mps 739 mmHg 73%
    12:00 +13°C° 0.7 mm 5 mps 739 mmHg 78%
    13:00 +12°C° 0.7 mm 5 mps 738 mmHg 84%
    14:00 +12°C° 0.7 mm 5 mps 738 mmHg 89%
    15:00 +10°C° 0.6 mm 5 mps 738 mmHg 89%
    16:00 +10°C° 0.6 mm 5 mps 738 mmHg 89%
    17:00 +9°C° 0.6 mm 5 mps 738 mmHg 88%
    18:00 +9°C° 0.1 mm 5 mps 738 mmHg 89%
    19:00 +8°C° 0.1 mm 4 mps 738 mmHg 90%
    20:00 +8°C° 0.1 mm 4 mps 738 mmHg 91%
    21:00 +7°C° 0.1 mm 4 mps 738 mmHg 91%
    22:00 +6°C° 0.1 mm 4 mps 738 mmHg 92%
    23:00 +6°C° 0.1 mm 4 mps 738 mmHg 92%

    27 May, Monday

    Time Temperature Precipitation Wind Pressure Humidity
    00:00 +5°C° 0 mm 4 mps 738 mmHg 93%
    01:00 +5°C° 0 mm 4 mps 738 mmHg 94%
    02:00 +4°C° 0 mm 4 mps 739 mmHg 95%
    03:00 +4°C° 0 mm 4 mps 739 mmHg 94%
    04:00 +5°C° 0 mm 5 mps 739 mmHg 94%
    05:00 +5°C° 0 mm 5 mps 740 mmHg 93%
    06:00 +6°C° 0 mm 5 mps 740 mmHg 92%
    07:00 +7°C° 0 mm 5 mps 741 mmHg 90%
    08:00 +8°C° 0 mm 5 mps 741 mmHg 88%
    09:00 +9°C° 0 mm 5 mps 742 mmHg 84%
    10:00 +10°C° 0 mm 5 mps 742 mmHg 79%
    11:00 +12°C° 0 mm 5 mps 743 mmHg 75%
    12:00 +13°C° 0 mm 5 mps 743 mmHg 74%
    13:00 +13°C° 0 mm 5 mps 743 mmHg 74%
    14:00 +13°C° 0 mm 5 mps 743 mmHg 73%
    15:00 +13°C° 0 mm 5 mps 744 mmHg 74%
    16:00 +13°C° 0 mm 5 mps 744 mmHg 74%
    17:00 +13°C° 0 mm 4 mps 744 mmHg 75%
    18:00 +13°C° 0 mm 4 mps 744 mmHg 79%
    19:00 +12°C° 0 mm 3 mps 744 mmHg 83%
    20:00 +12°C° 0 mm 2 mps 744 mmHg 87%
    21:00 +11°C° 0 mm 3 mps 744 mmHg 88%
    22:00 +10°C° 0 mm 3 mps 744 mmHg 90%
    23:00 +10°C° 0 mm 4 mps 744 mmHg 91%

    28 May, Tuesday

    Time Temperature Precipitation Wind Pressure Humidity
    00:00 +10°C° 0 mm 4 mps 744 mmHg 89%
    01:00 +10°C° 0 mm 4 mps 744 mmHg 87%
    02:00 +10°C° 0 mm 5 mps 744 mmHg 86%
    03:00 +10°C° 0 mm 5 mps 744 mmHg 86%
    04:00 +11°C° 0 mm 4 mps 744 mmHg 86%
    05:00 +11°C° 0 mm 4 mps 743 mmHg 87%
    06:00 +13°C° 0 mm 5 mps 743 mmHg 83%
    07:00 +14°C° 0 mm 5 mps 743 mmHg 79%
    08:00 +16°C° 0 mm 5 mps 743 mmHg 75%
    09:00 +17°C° 0 mm 5 mps 743 mmHg 72%
    10:00 +20°C° 0 mm 5 mps 743 mmHg 68%
    11:00 +21°C° 0 mm 6 mps 742 mmHg 64%
    12:00 +20°C° 0.2 mm 6 mps 742 mmHg 69%
    13:00 +20°C° 0.2 mm 7 mps 742 mmHg 73%
    14:00 +18°C° 0.2 mm 7 mps 741 mmHg 78%
    15:00 +17°C° 0.8 mm 6 mps 741 mmHg 83%
    16:00 +16°C° 0.8 mm 5 mps 741 mmHg 88%
    17:00 +15°C° 0.8 mm 4 mps 740 mmHg 93%
    18:00 +15°C° 0 mm 4 mps 740 mmHg 94%
    19:00 +16°C° 0 mm 3 mps 740 mmHg 94%
    20:00 +16°C° 0 mm 3 mps 740 mmHg 95%
    21:00 +15°C° 0 mm 2 mps 740 mmHg 95%
    22:00 +15°C° 0 mm 2 mps 740 mmHg 96%
    23:00 +14°C° 0 mm 2 mps 740 mmHg 97%
    Show more